www.pogodaiklimat.ru

ПОГОДА в Беатрисе, NE

  • Прогноз погоды в Беатрисе
  • Монитор погоды в Беатрисе
  • Климат в Беатрисе

АРХИВ ПОГОДЫ в Беатрисе

Время (UTC), дата Ветер
(напр.,м/с)
 
Видим.   Явления Облачность Т
(С)
Тd
(С)
f
(%)
Тe
(С)
Тes
(С)
Комфортность

P
(гПа)

Po
(гПа)
Тmin
(С)
Tmax
(С)
R
(мм)
SD
(см)
04:35 25.06 Ю  16 км    ясно  +20.7  +15.6  73  +24  +24  комфорт    961.7         
04:55 25.06 Ю  16 км    ясно  +20.4  +15.6  74  +23  +23  комфорт    961.7  +20.4  +27.1     
05:15 25.06 Ю  16 км    ясно  +20.1  +15.6  75  +23  +23  комфорт    961.7         
05:35 25.06 Ю  16 км    ясно  +20.2  +15.6  75  +23  +23  комфорт    961.7         
05:55 25.06 Ю  16 км    ясно  +20.1  +15.6  75  +22  +22  комфорт    961.7         
06:15 25.06 Ю  16 км    ясно  +20.2  +15.5  74  +23  +23  комфорт    961.7         
06:35 25.06 Ю  16 км    ясно  +20.5  +15.5  73  +23  +23  комфорт    961.7         
06:55 25.06 Ю  16 км    ясно  +20.2  +15.3  73  +23  +23  комфорт    961.7         
07:15 25.06 Ю  16 км    ясно  +20.1  +15.2  73  +23  +23  комфорт    961.7         
07:35 25.06 Ю  16 км    ясно  +20.1  +15.2  73  +23  +23  комфорт    961.7         
07:55 25.06   16 км    ясно  +20.1  +15.2  73  +22  +22  комфорт    962.4         
08:15 25.06 СЗ  16 км    ясно  +20.4  +15.5  73  +23  +23  комфорт    963.3         
08:35 25.06 ЮЗ  16 км  слабый дождь  ясно  +20.2  +15.7  75  +23  +23  комфорт    963.3         
08:55 25.06 З  16 км    5/0 2850 м
[средняя] 
+19.6  +16.0  80  +22  +22  комфорт    964.3         
09:15 25.06 З  16 км    5/0 2850 м
[средняя] 
+19.8  +15.7  77  +22  +22  комфорт    964.0         
09:35 25.06 З  16 км    ясно  +20.4  +15.6  74  +23  +23  комфорт    964.3         
09:55 25.06 СЗ  16 км    ясно  +19.6  +15.8  79  +21  +21  комфорт    964.6         
10:15 25.06   11 км    ясно  +19.1  +16.0  82  +20  +20      964.3         
10:35 25.06 СЗ  16 км    ясно  +18.6  +16.2  86  +20  +20      964.6         
10:55 25.06 С  16 км    ясно  +19.4  +16.2  82  +22  +22  комфорт    964.6  +18.5  +20.5     
11:15 25.06 ЮЗ  16 км    ясно  +20.0  +16.8  82  +23  +24  комфорт    964.6         
11:35 25.06   16 км    ясно  +21.1  +16.1  73  +24  +25  комфорт    964.6         
11:55 25.06   16 км    ясно  +21.6  +16.3  72  +25  +26  комфорт    964.6         
12:15 25.06   16 км    ясно  +22.0  +16.0  69  +26  +30  душно    964.3         
12:35 25.06 ЮВ  16 км    ясно  +22.5  +16.7  70  +27  +29  душно    964.6         
12:55 25.06 Ю  16 км    ясно  +23.0  +16.9  69  +28  +30  душно    964.9         
13:15 25.06 Ю  16 км    ясно  +24.0  +17.5  67  +28  +35  душно    965.3         
13:35 25.06 Ю  16 км    ясно  +23.5  +18.0  71  +28  +33  душно    965.3         
13:55 25.06 Ю  16 км    ясно  +24.6  +18.3  68  +29  +35  душно    965.6         
14:15 25.06 Ю  16 км    ясно  +25.0  +18.8  68  +30  +38  душно    965.6         
14:35 25.06 Ю  16 км    ясно  +25.4  +18.5  66  +30  +38  душно    965.3         
14:55 25.06 ЮЗ  16 км    ясно  +26.2  +18.5  63  +31  +39  очень
душно 
  965.3         
15:15 25.06 Ю  16 км    ясно  +27.1  +18.5  59  +32  +40  очень
душно 
  965.3         
15:35 25.06 ЮЗ  16 км    ясно  +27.5  +18.1  57  +32  +41  очень
душно 
  965.6         
15:55 25.06 Ю  16 км    ясно  +28.0  +18.1  55  +33  +41  очень
душно 
  965.6         
16:15 25.06 ЮЗ  16 км    ясно  +28.3  +18.0  54  +33  +40  очень
душно 
  965.6         
16:35 25.06 Ю  16 км    ясно  +28.8  +18.3  53  +34  +43  очень
душно 
  965.6         
16:55 25.06 ЮЗ  16 км    ясно  +29.2  +18.6  53  +34  +44  очень
душно 
  965.6  +19.3  +29.2     
17:15 25.06 З  16 км    ясно  +29.3  +18.7  53  +34  +51  опасность
солнечного
удара 
  965.6         
17:35 25.06 ЮЗ  16 км    ясно  +30.1  +19.7  54  +36  +49  очень
душно 
  965.6         
18:00 25.06 Ю  5
{7} 
16 км    ясно  +30.2  +19.6  53  +36  +44  очень
душно 
  965.3         
18:15 25.06 ЮЗ  16 км    ясно  +30.4  +19.7  53  +37  +48  очень
душно 
  965.3         
18:35 25.06 ЮЗ  16 км    ясно  +30.7  +19.6  52  +37  +50  очень
душно 
  965.3         
18:55 25.06 Ю  6
{7} 
16 км    ясно  +31.0  +20.1  52  +37  +44  очень
душно 
  964.9         
19:15 25.06 ЮЗ  16 км    ясно  +31.3  +20.1  51  +38  +48  очень
душно 
  964.6         
19:35 25.06 ЮЗ  16 км    ясно  +31.4  +19.9  51  +38  +50  очень
душно 
  964.6         
19:55 25.06 З  16 км    ясно  +31.6  +19.9  50  +38  +51  опасность
солнечного
удара 
  964.6         
20:15 25.06   16 км    5/5 1650 м  +31.5  +19.7  50  +38  +47  очень
душно 
  964.6         

 

Местоположение метеостанции Beatrice Municipal Airport: широта 40.3000 долгота -96.7500 высота над уровнем моря 403 м.

В архиве по умолчанию представлена погода в Беатрисе за последние 1-2 суток. Обновление информации о фактической погоде в базе происходит ежечасно! Архивные данные за месяц целиком и за предыдущие месяцы Вы можете получить, выбрав интересующий диапазон дат из раскрывающегося списка и нажав кнопку "Ввод!".

Внимание! Архив погоды МЕТАР в базе сайта хранится не более 60 дней. Нет смысла пытаться выбрать более раннюю дату.

Внимание! Время в таблицах - всемирное. Для получения местного времени необходимо прибавить поправку, которая в Беатрисе равна -6 ч.

Ветер - указаны скорость ветра в м/с и направление, откуда дует ветер: С - северный, СВ - северо-восточный, В - восточный, ЮВ - юго-восточный, Ю - южный, ЮЗ - юго-западный, З - западный, СЗ - северо-западный.
Видимость - горизонтальная дальность видимости в метрах или километрах. При видимости от 1 до 10 км при отсутствии осадков обычно наблюдается дымка, при ухудшении видимости до 1 км и менее - туман. В сухую погоду видимость может ухудшаться дымом, пылью или мглою.
Атмосферные явления - указаны явления, наблюдавшиеся в указанный момент времени.
Облачность - указаны через наклонную черту верхняя и нижняя облачность в баллах и высота нижней границы облаков в метрах. Внимание: облачность, как и прочие метеорологические величины в США измеряются автоматическими метеостанциями. Указанные значения в баллах носят условный характер и показывают процент времени, в течение которого, в среднем, лазерный луч высотомера отражался от облаков обратно.
T - Температура воздуха - температура, измеренная на высоте 2 м над землей.
Td - Температура точки росы - температура, при понижении до которой содержащийся в воздухе водяной пар достигнет насыщения.
f - Относительная влажность воздуха - влажноcть воздуха, измеренная на высоте 2 м над землей.
Te - Эффективная температура - температура, которую ощущает одетый по сезону человек в тени. Характеристика душности погоды. При расчете учитывается влияние влажности воздуха и скорости ветра на теплоощущения человека.
Tes - Эффективная температура на солнце - температура, которую ощущает человек, с поправкой на солнечный нагрев. Характеристика знойности погоды. Зависит от высоты солнца над горизонтом, облачности и скорости ветра. Ночью, в пасмурную погоду, а также при ветре 12 м/с и более поправка равна нулю.
P - Атмосферное давление - приведенное к уровню моря атмосферное давление.
Po - Атмосферное давление - измеренное на уровне метеостанции атмосферное давление.
Tmin - Минимальная температура - минимум температуры воздуха на высоте 2 м над землей.
Tmax - Максимальная температура - максимум температуры воздуха на высоте 2 м над землей.
R - Количество осадков - Количество выпавших осадков за 3 или 6 часов, мм.
SD - Снежный покров - Высота снежного покрова, см.